Free Severe Weather Alerts by Email and Text Message   

 
Follow iAlert.com on twitter @ialertcom
Search For Active Alerts in Your Area  
  Hi Guest:  [ Sign-up / Services ] [ Login ]

Current weather by "City, St" or "zip code"  

 

Advertise Here

Hazardous Weather Conditions

Flood Warning issued June 24 at 11:16AM EDT until June 25 at 4:45PM EDT
Special Weather Statement issued June 24 at 6:20AM EDT until June 25 at 4:45PM EDT

Current Conditions: PHILADELPHIA, PENNSYLVANIA

Overcast


82.0 F

Last Updated on Jun 25 2017, 12:54 pm EDT
Humidity: 46%
Wind Speed: 3.5 mph
Barometer 29.99 in
Dewpoint: 59.0 F
Visibility: 10.00 mi
Precip: --
Heat Index: 82 F
Wind Chill: NA
Current conditions at:

Philadelphia, Northeast Philadelphia Airport, PA (KPNE)

Lat: 40.07 Lon: -75.013

Local Radar Image active severe weather and emergency alerts image image weather storm and storm spotter reports image weather observation monitoring service image
Local
Radar
Active
Alerts
Storm Reports Weather
Monitoring

Weather Alert Notification Services


ialert severe weather and emergency alerts by text message and email ialert daily weather forecast by email and text message service ialert real-time weather-observation monitoring and alert notification service ialert storm report monitoring alert notification

Observation History for PHILADELPHIA, PENNSYLVANIA


Time Wind
(mph)
Vis
(mi)
Weather Precip (in) Temperature (F) Relative
Humidity
Wind
Chill
(°F)
Heat
Index
(°F)
Pressure
Air Dwpt altimeter
(in)
sea level
(mb)
12:54 pm EDT 3.5 10.00 Overcast -- 82.0 59.0 46% NA 82 29.99 1015.5
11:54 am EDT 3.5 10.00 Partly Cloudy -- 84.0 57.9 41% NA 83 30.01 1015.9
10:54 am EDT SE 4.6 10.00 Fair -- 81.0 57.9 45% NA 81 30.02 1016.3
9:54 am EDT N 0.0 10.00 Fair -- 81.0 60.1 49% NA 82 30.02 1016.5
8:54 am EDT N 0.0 10.00 Mostly Cloudy -- 78.0 61.0 56% NA NA 30.02 1016.5
7:54 am EDT N 0.0 10.00 Mostly Cloudy -- 75.0 60.1 60% NA NA 30.01 1016.2
6:54 am EDT N 0.0 10.00 A Few Clouds -- 72.0 62.1 71% NA NA 30.00 1015.7
5:54 am EDT N 0.0 10.00 Mostly Cloudy -- 68.0 60.1 76% NA NA 29.98 1015.0
4:54 am EDT NW 4.6 10.00 A Few Clouds -- 69.0 60.1 73% NA NA 29.96 1014.5
3:54 am EDT NW 3.5 10.00 Fair -- 70.0 61.0 73% NA NA 29.95 1014.2
2:54 am EDT N 3.5 10.00 Fair -- 73.0 61.0 66% NA NA 29.95 1014.0
1:54 am EDT NW 8.1 10.00 Fair -- 74.0 60.1 62% NA NA 29.94 1013.8
12:54 am EDT W 9.2 10.00 Fair -- 78.0 57.9 50% NA NA 29.95 1013.9
11:54 pm EDT W 8.1 10.00 Fair -- 77.0 59.0 54% NA NA 29.94 1013.7
10:54 pm EDT W 10.4 10.00 Fair -- 78.0 59.0 52% NA NA 29.93 1013.4
9:54 pm EDT W 9.2 10.00 Fair -- 80.0 59.0 49% NA 81 29.92 1013.0
8:54 pm EDT W 11.5 10.00 Fair -- 81.0 57.9 45% NA 81 29.89 1011.9
7:54 pm EDT W 11.5 10.00 Fair -- 83.0 57.9 43% NA 83 29.87 1011.3
6:54 pm EDT W 9.2 10.00 Fair -- 84.0 57.9 41% NA 83 29.86 1010.9
5:54 pm EDT W 11.5 G 21.9 10.00 A Few Clouds -- 86.0 57.9 39% NA 85 29.85 1010.5
4:54 pm EDT W 13.8 G 19.6 10.00 A Few Clouds -- 86.0 60.1 42% NA 86 29.84 1010.3
3:54 pm EDT W 16.1 G 24.2 10.00 A Few Clouds -- 86.0 59.0 40% NA 85 29.83 1010.0
2:54 pm EDT NW 12.7 G 21.9 10.00 A Few Clouds -- 87.0 60.1 40% NA 87 29.82 1009.5
1:54 pm EDT NW 15.0 10.00 Fair -- 86.0 57.9 39% NA 85 29.80 1008.9

Regional Weather Observation:


Pottstown, Pottstown Limerick Airport, PA (KPTW)

Mostly Cloudy
80.0 F

Doylestown, Doylestown Airport, PA (KDYL)

A Few Clouds
81.0 F

Quakertown Airport, PA (KUKT)

A Few Clouds
81.0 F

Allentown Queen City Municipal Airport, PA (KXLL)

Mostly Cloudy
79.0 F

Reading, Reading Regional Airport, PA (KRDG)

Fair
82.0 F

Philadelphia, Philadelphia International Airport, PA (KPHL)

Mostly Cloudy
84.0 F

Advertise Here


Advertise Here